Le nostre stazioni meteo in Italia

Pubblicità
Il mio iltempo24.it
Palermo/Punta Raisi, Italia (16405): Temperatura & dewpoint: 10.07.2018 20:00:00 - 16.07.2018 20:00:00 (CEST)Palermo/Punta Raisi, Italia (16405): velocità del vento: 10.07.2018 20:00:00 - 16.07.2018 20:00:00 (CEST)Palermo/Punta Raisi, Italia (16405): direzione del vento: 10.07.2018 20:00:00 - 16.07.2018 20:00:00 (CEST)Palermo/Punta Raisi, Italia (16405): reduced air pressure: 10.07.2018 20:00:00 - 16.07.2018 20:00:00 (CEST)Palermo/Punta Raisi, Italia (16405): visibility: 10.07.2018 20:00:00 - 16.07.2018 20:00:00 (CEST)Palermo/Punta Raisi, Italia (16405): precipitazioni: 10.07.2018 20:00:00 - 16.07.2018 20:00:00 (CEST)
Data & Tempo tt [°C] td [°C] ff [km/h] ff [kn] dd ppp [hPa] vv [km] rr [mm]
16.07.2018 20:00:00 26,9 23,8 31 17 ENE 1014,2 10 -
16.07.2018 19:00:00 27,0 24,0 26 14 NE - 10 -
16.07.2018 18:00:00 - - - - - - - -
16.07.2018 17:00:00 - - - - - - - -
16.07.2018 16:00:00 28,0 24,0 11 6 N - 10 -
16.07.2018 15:00:00 32,0 22,0 8 4 NO - 10 -
16.07.2018 14:00:00 29,8 24,2 11 6 NNO 1013,5 10 -
16.07.2018 13:00:00 29,0 24,0 9 5 NNO - 10 -
16.07.2018 12:00:00 29,0 23,0 11 6 N - 10 -
16.07.2018 11:00:00 28,7 22,2 21 11 ENE 1014,9 10 0,0
16.07.2018 10:00:00 26,0 23,0 18 10 NE - 10 -
16.07.2018 09:00:00 26,0 23,0 13 7 NE - 10 -
16.07.2018 08:00:00 25,5 22,3 5 3 NO 1016,4 10 -
16.07.2018 07:00:00 24,0 21,0 2 1 - - 10 -
16.07.2018 06:00:00 24,0 21,0 11 6 SO - 10 -
16.07.2018 05:00:00 24,0 21,3 13 7 ENE 1014,1 10 0,0
16.07.2018 04:00:00 25,0 23,0 13 7 NE - 10 -
16.07.2018 03:00:00 25,0 22,0 5 3 ESE - 10 -
16.07.2018 02:00:00 24,4 21,9 4 2 - 1015,2 10 -
16.07.2018 01:00:00 25,0 23,0 13 7 ENE - 10 -
16.07.2018 00:00:00 26,0 23,0 21 11 NE - 10 -
15.07.2018 23:00:00 25,9 23,1 21 11 NE 1014,7 10 0,0
15.07.2018 22:00:00 26,0 23,0 15 8 NE - 10 -
15.07.2018 21:00:00 26,0 23,0 11 6 NNE - 10 -
15.07.2018 20:00:00 26,5 23,5 11 6 N 1015,1 10 -
15.07.2018 19:00:00 27,0 23,0 11 6 NNO - 10 -
15.07.2018 18:00:00 27,0 24,0 11 6 ONO - 10 -
15.07.2018 17:00:00 27,3 23,6 13 7 ONO 1015,1 10 0,0
15.07.2018 16:00:00 27,0 23,0 18 10 ONO - 10 -
15.07.2018 15:00:00 26,0 24,0 22 12 ONO - 9 -
15.07.2018 14:00:00 26,5 23,5 24 13 ONO 1014,5 9 -
15.07.2018 13:00:00 26,0 23,0 26 14 O - 9 -
15.07.2018 12:00:00 27,0 22,0 15 8 O - 10 -
15.07.2018 11:00:00 26,8 21,3 15 8 O 1014,8 10 0,0
15.07.2018 10:00:00 27,0 21,0 11 6 O - 10 -
15.07.2018 09:00:00 27,0 20,0 11 6 SO - 10 -
15.07.2018 08:00:00 26,5 20,1 15 8 SO 1014,6 10 -
15.07.2018 07:00:00 26,0 20,0 15 8 S - 10 -
15.07.2018 06:00:00 26,0 20,0 13 7 SSO - 10 -
15.07.2018 05:00:00 25,6 20,2 16 9 SSO 1013,8 10 0,0
15.07.2018 04:00:00 26,0 20,0 21 11 SSO - 10 -
15.07.2018 03:00:00 26,0 20,0 22 12 SSO - 10 -
15.07.2018 02:00:00 25,7 20,6 22 12 SO 1014,6 10 -
15.07.2018 01:00:00 26,0 21,0 28 15 SSO - 10 -
15.07.2018 00:00:00 27,0 21,0 29 16 SSO - 10 -
14.07.2018 23:00:00 27,6 19,5 28 15 SSO 1014,1 10 0,0
14.07.2018 22:00:00 27,0 21,0 5 3 NE - 10 -
14.07.2018 21:00:00 27,0 22,0 8 4 NNE - 10 -
14.07.2018 20:00:00 27,5 22,3 5 3 N 1013,8 10 -
14.07.2018 19:00:00 29,0 19,0 9 5 O - 10 -
14.07.2018 18:00:00 29,0 20,0 13 7 O - 10 -
14.07.2018 17:00:00 29,3 24,0 11 6 O 1014,4 10 0,0
14.07.2018 16:00:00 34,0 17,0 24 13 ENE - 10 -
14.07.2018 15:00:00 33,0 17,0 26 14 ENE - 10 -
14.07.2018 14:00:00 32,5 17,4 26 14 ENE 1014,8 10 -
14.07.2018 13:00:00 32,0 18,0 28 15 ENE - 10 -
14.07.2018 12:00:00 31,0 18,0 26 14 ENE - 10 -
14.07.2018 11:00:00 31,1 18,9 22 12 NE 1015,6 10 0,0
14.07.2018 10:00:00 28,0 22,0 13 7 NNE - 10 -
14.07.2018 09:00:00 27,0 20,0 5 3 N - 10 -
14.07.2018 08:00:00 26,1 18,5 4 2 - 1016,3 10 -
14.07.2018 07:00:00 25,0 19,0 4 2 SSO - 10 -
14.07.2018 06:00:00 24,0 21,0 4 2 - - 10 -
14.07.2018 05:00:00 24,3 20,7 4 2 - 1015,3 10 0,0
14.07.2018 04:00:00 25,0 21,0 11 6 ENE - 10 -
14.07.2018 03:00:00 - - - - - - - -
14.07.2018 02:00:00 25,3 20,2 8 4 E 1016,4 10 -
14.07.2018 01:00:00 26,0 19,0 4 2 - - 10 -
14.07.2018 00:00:00 26,0 23,0 2 1 - - 10 -
13.07.2018 23:00:00 26,4 23,9 5 3 OSO 1016,6 10 0,0
13.07.2018 22:00:00 27,0 23,0 4 2 ONO - 10 -
13.07.2018 21:00:00 29,0 20,0 8 4 ENE - 10 -
13.07.2018 20:00:00 29,0 21,9 13 7 ENE 1015,7 10 -
13.07.2018 19:00:00 31,0 20,0 18 10 ENE - 10 -
13.07.2018 18:00:00 34,0 17,0 18 10 ENE - 10 -
13.07.2018 17:00:00 33,5 16,1 21 11 ENE 1015,6 10 0,0
13.07.2018 16:00:00 33,0 18,0 22 12 NE - 10 -
13.07.2018 15:00:00 35,0 16,0 22 12 ENE - 10 -
13.07.2018 14:00:00 32,3 18,7 24 13 NE 1016,1 10 -
13.07.2018 13:00:00 31,0 20,0 22 12 NE - 10 -
13.07.2018 12:00:00 30,0 21,0 21 11 NE - 10 -
13.07.2018 11:00:00 27,6 21,9 13 7 NNE 1017,2 10 0,0
13.07.2018 10:00:00 27,0 21,0 5 3 NNO - 10 -
13.07.2018 09:00:00 26,0 19,0 5 3 O - 10 -
13.07.2018 08:00:00 26,2 20,2 4 2 - 1016,9 10 -
13.07.2018 07:00:00 24,0 16,0 5 3 SSE - 10 -
13.07.2018 06:00:00 24,0 16,0 8 4 S - 10 -
13.07.2018 05:00:00 24,3 18,6 13 7 ENE 1015,9 10 0,0
13.07.2018 04:00:00 24,0 16,0 2 1 - - 10 -
13.07.2018 03:00:00 24,0 15,0 5 3 SSO - 10 -
13.07.2018 02:00:00 24,7 16,6 8 4 E 1016,1 10 -
13.07.2018 01:00:00 25,0 16,0 4 2 E - 10 -
13.07.2018 00:00:00 26,0 19,0 15 8 SO - 10 -
12.07.2018 23:00:00 26,3 19,8 16 9 SO 1016,6 10 0,0
12.07.2018 22:00:00 27,0 19,0 8 4 OSO - 10 -
12.07.2018 21:00:00 28,0 21,0 15 8 NE - 10 -
12.07.2018 20:00:00 28,9 17,7 21 11 NE 1015,5 10 -
12.07.2018 19:00:00 29,0 17,0 21 11 NE - 10 -
12.07.2018 18:00:00 30,0 15,0 18 10 NE - 10 -
12.07.2018 17:00:00 28,6 20,0 16 9 NE 1016,0 10 0,0
12.07.2018 16:00:00 30,0 17,0 21 11 NNE - 10 -
12.07.2018 15:00:00 29,0 20,0 21 11 NE - 10 -
12.07.2018 14:00:00 28,0 22,6 24 13 NE 1016,2 10 -
12.07.2018 13:00:00 29,0 23,0 18 10 NE - 10 -
12.07.2018 12:00:00 28,0 21,0 18 10 NNE - 10 -
12.07.2018 11:00:00 27,8 19,4 15 8 NNE 1016,3 10 0,0
12.07.2018 10:00:00 27,0 21,0 13 7 NNE - 10 -
12.07.2018 09:00:00 26,0 21,0 8 4 N - 10 -
12.07.2018 08:00:00 25,3 19,7 5 3 OSO 1016,5 10 -
12.07.2018 07:00:00 24,0 20,0 9 5 OSO - 10 -
12.07.2018 06:00:00 24,0 20,0 5 3 N - 10 -
12.07.2018 05:00:00 23,4 19,5 5 3 N 1014,8 10 0,0
12.07.2018 04:00:00 22,0 18,0 9 5 SSO - 10 -
12.07.2018 03:00:00 24,0 20,0 2 1 - - 10 -
12.07.2018 02:00:00 22,9 17,8 5 3 S 1015,3 10 -
12.07.2018 01:00:00 24,0 21,0 9 5 SSO - 10 -
12.07.2018 00:00:00 24,0 21,0 5 3 S - 10 -
11.07.2018 23:00:00 25,0 20,6 8 4 E 1015,4 10 0,0
11.07.2018 22:00:00 25,0 21,0 9 5 NE - 10 -
11.07.2018 21:00:00 26,0 22,0 8 4 NE - 10 -
11.07.2018 20:00:00 26,4 21,6 5 3 NNE 1014,3 10 -
11.07.2018 19:00:00 27,0 22,0 9 5 N - 10 -
11.07.2018 18:00:00 26,0 21,0 11 6 N - 10 -
11.07.2018 17:00:00 26,7 21,2 11 6 N 1014,2 10 0,0
11.07.2018 16:00:00 27,0 22,0 13 7 NNE - 10 -
11.07.2018 15:00:00 27,0 22,0 16 9 N - 10 -
11.07.2018 14:00:00 26,6 21,5 18 10 NNE 1014,2 10 -
11.07.2018 13:00:00 27,0 21,0 21 11 NNE - 10 -
11.07.2018 12:00:00 26,0 20,0 11 6 NNE - 10 -
11.07.2018 11:00:00 26,5 20,2 9 5 ONO 1014,6 10 0,0
11.07.2018 10:00:00 25,0 20,0 15 8 O - 10 -
11.07.2018 09:00:00 24,0 19,0 18 10 OSO - 10 -
11.07.2018 08:00:00 23,7 20,0 11 6 OSO 1014,4 10 -
11.07.2018 07:00:00 22,0 19,0 5 3 S - 10 -
11.07.2018 06:00:00 22,0 19,0 8 4 SSO - 10 -
11.07.2018 05:00:00 21,5 18,4 5 3 S 1013,6 10 0,0
11.07.2018 04:00:00 24,0 21,0 5 3 O - 10 -
11.07.2018 03:00:00 23,0 19,0 5 3 SSO - 10 -
11.07.2018 02:00:00 23,1 19,5 5 3 S 1014,1 - -
11.07.2018 01:00:00 24,0 20,0 8 4 S - 10 -
11.07.2018 00:00:00 24,0 19,0 5 3 SSE - 10 -
10.07.2018 23:00:00 24,9 19,9 9 5 NE 1014,6 10 0,0
10.07.2018 22:00:00 25,0 20,0 9 5 NNE - 10 -
10.07.2018 21:00:00 25,0 20,0 11 6 NNE - 10 -
10.07.2018 20:00:00 25,5 20,6 13 7 N 1014,2 10 -

tt = Temperatura
td = dewpoint
ff = velocità del vento
dd = direzione del vento
ppp = reduced air pressure
vv = visibility
rr = precipitazioni

Stazioni seguenti

WeatherPro
AMSI
MeteoEarth